This is the latest recevied weather packets stored in our database for station/object N8RJH-13. If no packets are shown the sender has not sent any weather packets the latest 10 day(s).
| Time | Temp. | Humidity | Pressure | Rain* | Wind** | Luminosity | Snow |
|---|---|---|---|---|---|---|---|
| 1787755926 | 23.89° C | 80% | 1021.7 hPa | - | - | - | - |
| 1787755312 | 23.89° C | 80% | 1021.7 hPa | - | - | - | - |
| 1787754687 | 23.33° C | 81% | 1021.8 hPa | - | - | - | - |
| 1787754067 | 23.33° C | 81% | 1021.9 hPa | - | - | - | - |
| 1787753437 | 22.78° C | 81% | 1021.9 hPa | - | - | - | - |
| 1787752797 | 22.22° C | 83% | 1022 hPa | - | - | - | - |
| 1787752177 | 21.67° C | 83% | 1021.9 hPa | - | - | - | - |
| 1787751546 | 21.11° C | 85% | 1021.9 hPa | - | - | - | - |
| 1787750907 | 20.56° C | 86% | 1021.8 hPa | - | - | - | - |
| 1787750283 | 20° C | 87% | 1021.8 hPa | - | - | - | - |
| 1787749656 | 20° C | 89% | 1021.7 hPa | - | - | - | - |
| 1787749018 | 19.44° C | 89% | 1021.7 hPa | - | - | - | - |
| 1787748387 | 18.89° C | 91% | 1021.7 hPa | - | - | - | - |
| 1787747767 | 18.33° C | 92% | 1021.6 hPa | - | - | - | - |
| 1787747156 | 17.78° C | 94% | 1021.9 hPa | - | - | - | - |
| 1787746527 | 17.22° C | 94% | 1021.7 hPa | - | - | - | - |
| 1787745897 | 16.67° C | 94% | 1021.6 hPa | - | - | - | - |
| 1787745276 | 16.11° C | 94% | 1021.7 hPa | - | - | - | - |
| 1787744666 | 15.56° C | 94% | 1021.6 hPa | - | - | - | - |
| 1787744046 | 15.56° C | 93% | 1021.5 hPa | - | - | - | - |
| 1787743437 | 15.56° C | 93% | 1021.3 hPa | - | - | - | - |
| 1787742812 | 15.56° C | 92% | 1021.3 hPa | - | - | - | - |
| 1787742177 | 15.56° C | 92% | 1021.2 hPa | - | - | - | - |
| 1787741546 | 15.56° C | 92% | 1021 hPa | - | - | - | - |
| 1787740914 | 15.56° C | 92% | 1021 hPa | - | - | - | - |
* Rain since midnight (hover to see other rain measurements)
** Current wind speed in m/s (hover to see current wind gust speed)